Temperature
28 27 26 26 28 29 29 29 28 28 28 27 28 29 29 28 28 27 26 25 24 23 22 21 20 19 19 18 17 17 16 15 15 14 14 13 13 13 12 12 12 11 11 11
28 29 28 29 30 30 30 30 30 29 29 29 29 29 28 28 27 27 26 25 24 23 22 21 20 19 19 18 17 17 16 15 15 14 14 13 13 12 12 12 12 12 11 11
27 28 28 28 29 29 30 30 30 29 29 29 29 29 28 28 27 26 26 25 24 23 22 21 20 19 19 18 17 17 16 15 15 14 14 13 13 13 12 12 12 12 12 11
27 26 25 28 30 30 30 30 30 30 29 29 29 28 27 27 26 26 25 25 24 23 22 21 20 19 18 18 17 17 16 16 15 14 14 13 13 13 12 12 12 12 11 11
26 26 26 28 29 29 29 29 30 29 29 29 29 28 27 26 26 25 25 24 23 23 22 21 20 19 18 18 17 17 16 16 15 14 14 14 13 13 12 12 12 12 11 11
26 25 25 26 26 27 28 26 28 28 28 28 28 27 26 26 25 25 24 23 23 22 22 21 20 19 18 18 17 17 16 16 15 15 14 14 13 13 13 12 12 12 11 11
25 26 26 25 26 26 25 24 27 27 27 26 27 26 26 25 25 24 23 23 22 22 21 20 19 19 18 17 17 17 16 16 15 15 14 14 13 13 13 12 12 12 12 12
24 24 23 23 24 22 22 23 25 26 26 26 26 26 25 24 24 23 23 22 22 21 20 20 19 18 18 17 17 16 16 15 15 15 14 14 13 13 13 12 12 12 12 12
24 22 21 21 21 22 22 23 24 25 25 25 25 25 24 24 23 23 22 22 21 21 20 19 18 18 17 17 16 16 15 15 15 14 14 14 13 13 12 12 12 12 12 12
24 22 21 21 21 21 22 23 24 24 24 24 24 24 24 23 22 22 21 21 21 20 19 19 18 17 17 17 16 15 15 15 14 14 14 13 13 13 13 13 13 13 12 12
23 22 22 21 22 22 23 23 23 23 23 23 23 22 22 21 21 20 20 20 20 19 19 18 18 17 16 16 16 15 15 14 14 13 13 13 13 13 13 13 13 13 12 12
23 23 23 21 21 22 22 22 22 22 21 21 21 21 20 20 20 19 19 19 19 18 18 18 17 17 16 16 15 15 14 14 13 13 13 14 13 13 13 13 13 13 13 12
23 23 22 22 22 22 22 21 21 20 20 20 19 19 19 19 18 18 18 18 17 17 17 17 16 16 16 15 15 14 14 13 13 13 13 13 13 13 13 13 13 13 13 12
21 21 21 21 21 20 20 20 20 19 19 18 18 18 18 17 17 17 17 16 16 16 16 16 15 15 15 15 14 14 13 13 13 13 13 13 13 13 13 13 13 13 13 12
20 20 20 20 20 19 19 19 19 18 18 17 17 17 16 16 16 16 15 15 15 15 15 14 14 14 14 14 13 13 13 13 13 13 13 13 13 13 13 13 13 13 13 12
20 19 19 19 18 18 18 18 18 17 17 17 16 16 15 15 15 15 14 14 14 14 13 13 13 13 13 12 12 12 12 13 13 12 12 12 13 13 13 13 13 12 12 12
19 18 18 18 17 17 17 17 17 16 16 16 15 15 15 14 14 13 13 13 13 13 13 12 12 12 12 12 12 11 12 12 12 12 12 12 12 12 12 12 12 12 12 12
17 17 17 16 16 16 16 16 16 15 15 15 15 15 14 14 13 13 12 12 12 12 12 12 11 11 11 11 11 11 11 11 12 12 12 12 12 12 12 12 12 12 12 12
16 16 16 15 15 15 15 15 15 15 14 14 14 14 13 13 12 12 12 12 12 12 11 11 11 11 11 10 10 10 11 11 11 11 12 12 12 12 11 11 11 11 11 11
15 15 15 15 15 15 15 14 14 14 14 14 13 13 13 12 12 12 11 11 12 11 11 11 11 10 10 10 10 10 10 10 11 11 11 11 11 11 11 11 11 11 11 11
15 15 15 15 15 14 14 14 14 13 13 13 13 13 12 12 12 11 11 11 11 11 11 10 10 10 10 9 9 9 9 10 10 10 10 10 10 10 10 10 10 10 10 10
15 14 14 14 14 14 13 13 13 13 13 13 12 12 12 12 12 11 11 11 11 11 10 10 10 10 9 9 9 9 9 9 9 9 10 10 10 10 10 10 10 10 10 10
14 13 13 13 13 13 13 12 13 13 12 12 12 12 12 11 11 11 11 11 11 10 10 10 9 9 9 8 8 8 8 8 8 9 9 9 9 9 9 9 9 9 9 9
13 13 12 12 12 12 12 12 12 12 12 12 12 12 12 11 11 11 11 11 10 10 10 9 9 9 9 8 8 8 8 8 8 8 8 8 8 8 8 9 9 9 9 9
12 12 12 12 12 12 12 12 12 12 12 12 12 12 12 11 11 11 11 10 10 10 9 9 9 8 8 8 8 7 7 7 7 7 7 7 7 8 8 8 8 8 8 9
12 12 12 12 12 12 12 12 12 12 12 12 12 11 11 11 11 10 10 10 10 9 9 8 8 8 8 7 7 7 6 6 6 6 6 6 7 7 7 7 8 8 8 8
12 12 12 12 12 12 12 12 12 12 11 11 11 11 10 10 10 10 10 9 9 9 8 8 7 7 7 6 6 6 5 5 5 5 6 6 6 6 6 7 7 7 7 7
Wind_Speed
9 9 13 16 16 12 10 9 9 6 5 7 5 5 6 7 10 10 11 11 9 9 8 7 6 6 5 4 4 3 2 3 3 3 4 5 5 6 6 6 8 7 7 7
13 12 13 15 13 11 11 10 9 7 2 5 6 5 5 6 8 9 10 11 10 9 9 8 7 7 6 5 5 4 4 4 4 4 4 5 5 6 6 6 7 7 7 8
13 13 14 12 11 10 9 8 6 4 2 6 5 5 5 5 5 6 9 9 9 9 9 8 7 6 6 5 5 5 5 5 5 5 5 5 6 6 6 6 7 7 7 8
12 12 14 10 8 8 6 5 2 2 4 5 4 4 4 5 5 5 6 7 8 9 9 9 8 8 6 6 6 6 6 6 5 5 5 5 5 6 6 6 6 7 7 8
11 13 11 10 7 6 5 3 0 2 3 3 4 3 4 7 7 6 5 6 6 7 9 9 9 8 7 6 6 6 6 5 5 5 5 5 6 6 6 6 7 7 8 8
11 13 11 5 5 7 4 1 3 3 4 3 0 1 3 8 7 6 5 6 6 7 7 8 7 7 7 6 6 5 5 4 4 4 5 6 7 7 7 6 7 9 9 8
13 13 6 4 3 4 4 1 4 5 5 2 1 2 4 5 6 5 5 6 6 6 6 7 7 7 7 6 6 5 4 4 5 5 6 7 8 7 6 7 8 9 10 10
8 8 4 7 5 3 2 6 6 6 4 2 3 3 3 3 5 5 5 6 7 6 6 6 7 7 6 6 5 4 4 5 5 5 7 8 6 6 7 8 9 10 10 10
1 2 3 4 3 2 3 5 6 6 6 5 3 2 2 3 4 3 4 4 5 6 6 6 6 6 6 5 4 4 5 5 5 6 6 7 8 8 8 8 9 9 7 7
1 5 6 5 5 3 2 2 5 6 7 6 5 5 3 3 3 2 1 2 2 3 5 5 6 6 5 4 4 5 6 6 6 7 8 8 8 8 8 8 7 7 6 6
1 4 6 8 6 4 5 7 9 9 9 9 9 8 8 6 5 3 2 2 1 0 1 4 5 5 5 4 4 5 6 6 8 9 10 8 9 8 9 8 8 8 7 7
3 3 4 6 5 7 8 9 9 10 11 11 11 9 9 8 7 6 5 4 3 2 2 1 1 3 4 4 5 5 6 7 8 9 8 8 8 8 12 14 14 15 15 13
5 5 7 7 8 8 9 10 11 11 11 11 11 11 10 8 8 7 6 6 4 4 4 3 2 3 3 4 4 5 7 8 9 9 9 9 8 8 8 9 12 14 16 16
7 7 8 8 8 9 10 11 11 11 12 12 11 11 10 10 9 9 8 7 7 6 5 5 5 5 4 3 4 6 8 10 10 9 9 10 9 9 9 8 8 7 9 14
6 8 9 9 9 9 9 10 10 10 11 11 11 11 11 10 9 9 9 9 8 8 8 8 7 6 6 6 6 8 9 10 9 9 10 10 9 9 9 8 7 8 7 5
9 10 9 9 8 8 9 9 9 9 9 10 10 10 10 9 9 9 9 9 9 8 8 8 7 8 8 9 9 9 9 13 12 11 12 11 10 10 9 8 7 7 7 5
8 7 7 7 7 7 8 8 8 9 9 9 9 9 9 9 8 8 9 9 8 8 7 6 7 9 10 10 10 11 11 12 12 11 11 10 10 9 9 8 8 8 7 5
10 9 8 7 6 6 7 7 8 9 9 9 10 9 8 8 8 9 9 10 9 8 6 7 8 10 11 10 9 11 12 12 12 12 11 9 9 9 9 9 8 9 6 5
8 6 5 5 5 5 6 7 8 9 9 9 9 9 9 8 8 9 9 10 10 8 7 9 11 12 11 9 11 10 12 14 13 12 11 9 8 8 8 8 8 8 7 5
4 2 3 3 5 5 6 8 9 9 10 10 10 9 9 8 9 9 10 10 7 7 7 10 11 11 10 10 12 13 15 15 14 12 10 10 9 8 7 7 7 7 7 6
2 3 5 6 7 8 9 10 10 11 11 11 11 10 10 9 10 9 9 10 5 4 8 11 9 8 9 12 15 15 15 14 13 11 10 9 8 8 8 8 7 6 6 5
5 6 8 9 10 10 10 11 12 13 12 11 11 11 11 10 11 10 9 8 7 4 7 10 10 9 11 14 14 14 14 13 12 10 9 8 8 8 7 7 6 6 5 5
7 8 9 11 11 12 13 13 13 12 12 12 11 11 11 9 10 11 11 8 8 7 9 10 8 9 12 13 13 13 13 12 10 9 8 8 8 8 7 7 6 6 5 4
9 10 11 12 13 13 14 14 13 11 12 12 12 10 9 9 9 9 9 8 7 7 10 8 7 9 12 11 11 11 11 10 9 9 9 8 7 7 6 6 6 6 4 4
11 12 13 13 13 12 12 12 13 12 12 10 10 9 9 8 9 10 10 11 10 10 10 8 7 9 10 10 10 10 10 9 9 9 8 8 8 7 6 6 6 6 4 4
11 11 11 11 11 11 12 12 11 11 10 10 10 10 9 9 11 10 9 11 11 9 9 9 9 9 9 9 10 10 9 9 9 8 9 8 8 7 6 6 7 6 5 4
12 11 9 10 10 10 10 10 11 11 10 10 11 11 11 11 11 11 12 10 9 9 9 9 8 8 9 8 8 8 8 7 7 8 8 8 7 7 7 7 6 6 5 5
Wind_Direction
275 227 224 246 252 255 257 265 273 264 216 186 199 180 168 172 167 168 167 168 166 162 158 159 163 166 182 185 173 178 203 234 240 237 246 256 260 264 265 267 274 275 278 278
283 270 261 267 267 264 262 263 265 263 237 128 147 157 159 171 172 173 174 175 172 168 163 165 172 179 183 186 180 178 208 241 246 245 252 258 262 262 265 268 272 274 274 277
283 295 293 280 275 271 266 263 258 256 155 140 149 150 153 163 181 182 179 177 172 169 163 165 171 173 180 187 186 192 208 234 245 247 257 260 272 277 278 280 280 278 277 276
278 279 276 276 259 258 245 236 224 153 138 136 141 156 159 168 178 180 175 173 165 164 161 166 168 175 183 194 193 202 213 226 237 246 259 266 268 271 273 276 279 279 277 277
271 272 270 281 297 296 266 233 14 146 130 131 145 171 164 154 157 167 171 152 152 166 171 166 171 175 178 201 207 213 222 223 236 246 260 266 269 270 273 273 275 277 278 272
256 266 272 279 308 311 309 241 25 60 71 60 143 216 101 137 153 162 152 139 152 170 164 160 170 170 179 203 215 225 233 233 238 244 255 263 268 269 270 270 273 276 276 276
257 267 276 346 335 308 256 87 48 56 62 40 6 50 99 130 138 141 144 150 156 166 167 165 166 167 185 208 218 225 233 236 236 239 248 253 253 253 257 266 272 275 277 276
252 272 287 3 22 44 8 353 12 30 23 7 40 83 121 129 123 145 160 169 171 168 170 162 162 172 195 214 222 227 234 245 250 250 262 270 260 255 255 261 269 270 267 269
160 165 97 52 75 66 7 345 354 350 354 10 16 31 90 111 123 143 167 177 181 172 167 164 169 182 209 215 221 237 243 252 260 264 261 265 267 266 262 257 262 268 270 277
101 129 132 107 84 71 7 5 355 3 9 3 13 16 29 79 100 107 127 150 160 168 177 179 182 190 206 213 220 241 253 258 260 261 261 259 256 263 267 268 269 273 280 286
74 112 122 77 60 29 27 32 26 20 16 19 25 29 29 36 55 53 45 48 71 110 217 202 189 191 201 207 215 240 256 263 268 268 268 262 261 255 258 259 263 265 275 283
92 95 83 88 55 36 43 40 38 34 32 29 27 30 36 36 39 38 29 18 15 349 303 283 219 205 210 217 223 240 257 263 271 275 276 275 273 271 254 246 251 243 240 248
67 77 87 80 63 52 53 52 52 47 41 36 31 29 32 34 31 27 24 19 8 348 335 331 311 284 253 237 233 244 261 272 278 281 284 284 284 282 282 272 252 246 246 245
72 80 81 69 64 53 52 53 53 50 43 39 34 33 33 33 32 26 20 12 6 357 346 342 330 319 315 302 271 260 265 271 271 271 274 277 278 279 279 282 285 279 253 236
95 99 95 83 71 62 53 50 48 44 39 35 32 30 26 25 23 18 14 7 1 352 352 345 333 327 330 320 300 286 281 279 277 279 281 280 277 279 280 280 281 286 284 245
99 92 92 85 71 58 50 45 39 33 29 26 23 19 17 17 15 12 6 1 355 346 340 335 333 338 343 332 317 301 285 276 272 277 280 281 282 282 282 281 284 284 280 276
111 103 92 79 66 51 39 31 26 20 15 11 5 4 4 5 3 1 355 350 343 329 330 339 348 347 333 317 310 305 301 296 282 275 274 276 279 282 284 284 286 287 283 276
85 79 72 59 45 35 22 14 9 4 358 351 348 351 352 352 351 348 342 337 328 322 338 355 351 332 317 318 318 310 305 301 298 293 285 279 279 283 284 284 287 289 285 274
88 79 67 49 26 12 2 356 350 345 340 337 337 340 341 344 346 339 335 327 318 322 352 350 338 322 316 326 324 307 303 300 297 293 291 289 286 286 286 286 288 290 289 292
91 73 35 10 358 352 341 336 334 332 329 328 326 324 325 327 328 327 324 313 320 342 342 337 326 316 321 343 338 317 306 302 299 300 300 297 293 293 290 290 293 294 294 295
359 351 348 341 339 334 331 331 325 319 317 318 317 315 315 316 314 311 306 308 327 349 331 320 315 327 338 334 318 310 304 302 303 304 303 303 301 299 296 294 295 298 300 302
341 333 329 327 324 321 321 318 311 308 308 306 308 311 311 306 304 304 300 300 310 345 329 320 319 334 331 322 313 308 307 306 307 306 307 309 307 303 299 299 300 301 305 307
323 321 318 316 314 312 310 307 303 302 303 305 304 301 297 299 297 296 299 306 317 330 320 313 320 317 311 311 310 310 312 312 311 312 315 314 309 306 305 310 311 308 307 316
310 309 308 308 306 303 299 297 298 299 296 292 289 286 286 289 291 294 304 316 318 313 310 308 302 301 301 307 312 317 319 320 319 317 317 316 317 319 322 322 318 311 314 332
300 299 297 296 295 294 297 299 298 291 288 292 297 303 302 304 307 311 312 310 307 305 311 315 313 308 308 315 319 324 325 330 331 329 325 325 325 328 329 325 322 321 332 346
289 286 287 287 289 288 290 289 291 295 301 305 307 309 312 313 311 308 305 308 313 321 319 322 325 321 323 325 328 331 331 331 329 328 333 330 330 333 331 333 329 332 338 342
293 290 284 284 290 296 300 301 303 305 308 308 310 312 310 306 305 308 309 312 318 322 325 325 326 326 325 328 337 340 340 342 342 343 341 338 339 341 344 341 339 340 343 352
Height
1468 1470 1474 1471 1464 1458 1460 1462 1469 1469 1469 1468 1466 1466 1470 1473 1477 1482 1487 1491 1495 1499 1502 1505 1508 1509 1511 1512 1512 1512 1512 1511 1511 1510 1508 1507 1506 1504 1503 1501 1500 1499 1497 1495
1468 1461 1460 1459 1453 1452 1453 1453 1456 1458 1461 1458 1462 1465 1469 1472 1475 1479 1484 1489 1493 1497 1500 1502 1505 1506 1508 1508 1509 1508 1508 1508 1507 1506 1505 1504 1503 1501 1500 1498 1496 1495 1493 1491
1470 1460 1459 1464 1453 1450 1449 1448 1450 1458 1458 1457 1460 1464 1468 1471 1474 1478 1482 1486 1489 1493 1496 1499 1501 1503 1504 1505 1505 1505 1505 1505 1504 1503 1502 1501 1500 1498 1496 1494 1492 1490 1488 1486
1468 1470 1483 1458 1442 1442 1445 1445 1445 1449 1452 1455 1460 1463 1467 1470 1474 1477 1480 1483 1486 1490 1493 1495 1498 1499 1500 1501 1502 1502 1501 1501 1500 1500 1499 1497 1496 1494 1492 1490 1488 1486 1484 1482
1469 1472 1467 1452 1444 1445 1448 1449 1446 1448 1451 1455 1458 1461 1465 1468 1472 1476 1479 1481 1484 1487 1490 1492 1494 1495 1496 1497 1498 1498 1498 1497 1497 1496 1495 1493 1491 1490 1488 1486 1483 1481 1479 1477
1465 1471 1475 1460 1450 1449 1451 1458 1450 1451 1453 1455 1458 1462 1466 1468 1471 1474 1477 1479 1482 1485 1487 1488 1490 1492 1492 1493 1494 1494 1494 1493 1493 1491 1490 1488 1487 1485 1483 1481 1479 1477 1474 1472
1463 1465 1459 1455 1451 1452 1465 1466 1456 1455 1456 1459 1460 1462 1466 1468 1470 1473 1475 1478 1480 1482 1484 1485 1486 1487 1488 1489 1489 1489 1489 1489 1487 1486 1485 1483 1481 1480 1478 1476 1474 1472 1470 1467
1461 1470 1472 1459 1456 1464 1467 1460 1457 1457 1459 1459 1460 1462 1464 1466 1469 1471 1473 1475 1477 1479 1480 1482 1482 1483 1484 1485 1485 1485 1485 1484 1483 1482 1480 1479 1477 1475 1473 1471 1469 1467 1465 1462
1459 1466 1464 1462 1464 1464 1464 1462 1460 1461 1460 1460 1461 1462 1464 1466 1467 1469 1471 1473 1474 1475 1477 1478 1479 1480 1481 1481 1482 1481 1481 1480 1478 1477 1475 1474 1472 1470 1468 1466 1464 1462 1460 1458
1454 1458 1462 1462 1464 1466 1465 1464 1463 1462 1461 1461 1462 1463 1464 1465 1466 1467 1469 1470 1472 1473 1474 1475 1476 1476 1477 1478 1478 1477 1476 1475 1474 1472 1470 1469 1467 1465 1464 1462 1460 1458 1455 1453
1455 1460 1462 1464 1465 1465 1464 1464 1463 1463 1463 1463 1463 1464 1464 1465 1465 1467 1468 1469 1470 1471 1471 1472 1472 1473 1473 1473 1473 1472 1472 1470 1469 1467 1466 1464 1462 1460 1457 1456 1454 1452 1449 1447
1457 1459 1459 1463 1464 1464 1464 1465 1465 1465 1465 1465 1465 1465 1465 1466 1466 1467 1468 1468 1469 1469 1470 1470 1470 1470 1470 1469 1469 1468 1467 1466 1464 1463 1461 1459 1456 1454 1452 1450 1448 1445 1443 1441
1456 1458 1460 1463 1465 1466 1466 1467 1467 1468 1468 1468 1468 1467 1467 1467 1467 1468 1468 1468 1468 1468 1468 1468 1467 1467 1467 1465 1464 1463 1462 1461 1459 1458 1456 1453 1451 1448 1446 1444 1442 1439 1437 1434
1459 1460 1462 1465 1467 1468 1468 1469 1469 1470 1471 1471 1470 1470 1469 1469 1469 1469 1469 1468 1468 1467 1467 1466 1465 1464 1463 1462 1460 1458 1457 1455 1453 1451 1449 1447 1445 1443 1440 1438 1435 1433 1431 1428
1462 1463 1466 1468 1469 1471 1471 1471 1472 1472 1473 1473 1472 1472 1471 1471 1470 1470 1469 1468 1467 1466 1465 1464 1463 1461 1460 1458 1456 1453 1452 1450 1448 1446 1443 1441 1438 1436 1434 1432 1429 1427 1425 1422
1464 1466 1468 1471 1472 1474 1474 1474 1475 1475 1475 1475 1474 1473 1473 1472 1471 1470 1469 1468 1466 1465 1463 1462 1460 1458 1456 1453 1451 1448 1446 1444 1442 1439 1437 1435 1432 1430 1428 1426 1423 1421 1419 1417
1467 1469 1472 1473 1475 1476 1477 1477 1477 1477 1476 1476 1475 1474 1473 1471 1470 1469 1468 1466 1465 1463 1461 1459 1457 1454 1452 1449 1447 1444 1441 1438 1436 1433 1430 1428 1426 1424 1422 1419 1417 1415 1413 1411
1470 1473 1474 1476 1477 1478 1478 1478 1478 1477 1477 1476 1475 1473 1472 1471 1469 1468 1466 1464 1462 1461 1458 1456 1453 1450 1448 1445 1442 1439 1437 1433 1431 1428 1425 1422 1419 1417 1416 1414 1411 1409 1407 1405
1474 1475 1477 1478 1478 1478 1478 1478 1478 1477 1476 1475 1473 1472 1471 1469 1468 1466 1464 1462 1460 1458 1455 1453 1450 1447 1444 1441 1438 1435 1432 1428 1425 1422 1419 1416 1413 1411 1409 1407 1405 1404 1402 1400
1476 1477 1478 1478 1478 1478 1478 1478 1477 1476 1474 1473 1471 1470 1468 1467 1465 1464 1462 1459 1457 1454 1452 1449 1446 1443 1441 1437 1433 1430 1427 1423 1420 1416 1413 1410 1408 1406 1404 1402 1400 1398 1397 1395
1477 1477 1478 1478 1478 1477 1477 1476 1475 1473 1472 1470 1469 1467 1465 1464 1462 1460 1458 1456 1453 1450 1448 1445 1443 1439 1436 1432 1428 1425 1421 1418 1414 1411 1408 1405 1403 1400 1399 1397 1395 1393 1392 1390
1477 1477 1477 1477 1476 1475 1474 1473 1472 1470 1468 1466 1465 1463 1461 1460 1458 1456 1454 1452 1449 1446 1444 1442 1439 1435 1431 1427 1423 1419 1416 1412 1409 1406 1403 1400 1398 1396 1393 1392 1390 1388 1387 1386
1477 1476 1476 1475 1474 1472 1471 1469 1467 1465 1464 1462 1460 1459 1457 1455 1453 1451 1449 1447 1445 1442 1439 1437 1433 1430 1426 1422 1418 1414 1411 1408 1404 1401 1398 1396 1394 1391 1389 1387 1386 1385 1384 1383
1475 1474 1473 1472 1470 1468 1466 1464 1462 1461 1459 1457 1455 1453 1452 1450 1448 1446 1444 1442 1439 1437 1434 1431 1428 1424 1420 1417 1413 1410 1407 1403 1400 1397 1395 1392 1390 1387 1385 1384 1383 1382 1381 1380
1472 1471 1469 1468 1466 1463 1461 1459 1457 1455 1453 1451 1450 1449 1447 1445 1444 1441 1440 1437 1435 1432 1429 1426 1423 1419 1416 1413 1409 1406 1403 1400 1396 1393 1391 1389 1386 1384 1382 1381 1380 1379 1379 1378
1467 1466 1464 1463 1461 1459 1456 1454 1452 1450 1449 1447 1446 1444 1443 1441 1439 1437 1435 1432 1430 1427 1424 1421 1418 1414 1411 1408 1405 1402 1399 1396 1393 1390 1388 1386 1384 1382 1380 1379 1378 1378 1377 1376
1463 1461 1459 1457 1455 1453 1451 1450 1448 1446 1445 1443 1441 1440 1438 1436 1434 1432 1430 1427 1425 1422 1419 1416 1413 1410 1407 1404 1401 1399 1396 1393 1390 1387 1385 1383 1381 1379 1378 1377 1376 1376 1375 1375